Regional Weather Roundup
Issued by NWS

Home | Current Version | Previous Version | Text Only | Print | Product List | Glossary On
Versions: 1 2 3 4 5 6 7 8 9 10 11 12 13 14 15 16 17 18 19 20 21 22 23 24 25 26 27 28 29 30 31 32 33 34 35 36 37 38 39 40 41 42 43 44 45 46 47 48 49 50
000
ASUS43 KLOT 102209
RWRIL

ILLINOIS REGIONAL WEATHER ROUNDUP
NATIONAL WEATHER SERVICE CHICAGO/ROMEOVILLE IL
500 PM CDT WED AUG 10 2022

NOTE: "FAIR" INDICATES FEW OR NO CLOUDS BELOW 12,000 FEET WITH NO
SIGNIFICANT WEATHER AND/OR OBSTRUCTIONS TO VISIBILITY.

* THESE STATIONS ARE NOT UNDER NWS QUALITY CONTROL. THEY ALSO MAY NOT
  REPORT WEATHER SUCH AS PRECIPITATION OR FOG.

ILZ001-002-007-009-015-016-024-102300-
NORTHWEST ILLINOIS

CITY           SKY/WX    TMP DP  RH WIND       PRES   REMARKS
MOLINE         SUNNY     84  65  52 NW8G17    30.13F HX  86
STERLING*      SUNNY     82  67  60 W6        30.14F HX  84
$$

ILZ003-004-008-010-011-017-018-102300-
NORTH CENTRAL ILLINOIS

CITY           SKY/WX    TMP DP  RH WIND       PRES   REMARKS
ROCKFORD       MOSUNNY   83  65  54 NW9       30.14F HX  85
FREEPORT*      SUNNY     81  69  67 NW7       30.16S HX  84
ROCHELLE*      SUNNY     80  65  59 NW5       30.14F HX  82
DE KALB*       SUNNY     79  66  64 NW7       30.14F HX  81
PERU*          MOSUNNY   79  65  60 NW6       30.13F HX  81
$$

ILZ005-006-012>014-019>023-102300-
NORTHEAST ILLINOIS

CITY           SKY/WX    TMP DP  RH WIND       PRES   REMARKS
CHICAGO-OHARE  MOSUNNY   84  59  42 W7        30.10F HX  84
CHICAGO-MIDWAY MOSUNNY   85  59  41 SE8       30.10F HX  84
AURORA         SUNNY     80  65  59 NW6       30.12F HX  82
JOLIET*        SUNNY     83  63  50 CALM      30.12F HX  83
WAUKEGAN       SUNNY     84  63  49 VRB5      30.10S HX  85
DUPAGE AIRPORT SUNNY     82  63  52 NW10      30.11F HX  83
KANKAKEE*      SUNNY     81  61  50 N3        30.13S HX  81
WHEELING       SUNNY     85  61  44 NW9       30.12S HX  85
MORRIS*        SUNNY     80  65  59 NW3       30.11F HX  82
LANSING*       SUNNY     81  62  52 NE6       30.11F HX  82
NORTHERLY ISL*   N/A     75  64  68 SE3         N/A
$$

LMZ740>746-102300-
SOUTHERN LAKE MICHIGAN

STATION/POSITION SKY/WX   TEMP    WIND        PRES    VSBY  WAVE
                          AIR SEA DIR/SP/G                  HT/PER
                          (F)     (DEG/KT/KT) (MB)    (MI)  (FT/S)
SOUTHERN BUOY              73 74  210/  8/  8 1019.4F         0
WINTHROP HARBOR            72 69  170/  8/ 10   N/A           1
WAUKEGAN HARBOR            72 68  170/  6/  8 1019.0          0
WILMETTE HARBOR               71  160/  6/  8 1018.4          1
HARRISON CRIB              75     160/  9/ 10   N/A
CHICAGO BUOY               73 70  170/  6/  8 1020.1F         1
NORTHERLY ISL              76     150/  4/  6   N/A
CALUMET HARBOR             76      60/  6/  8 1018.5
BURNS HARBOR               78        CALM     1020.3F
MICH. CITY SHORE           75        CALM     1018.8F
MICH. CITY BUOY            75                   N/A           1
$$

ILZ025>027-034>036-040-047-049-050-058-095>099-102300-
WEST-CENTRAL ILLINOIS

CITY           SKY/WX    TMP DP  RH WIND       PRES   REMARKS
QUINCY         SUNNY     83  59  44 NE6       30.14F HX  83
GALESBURG*     SUNNY     80  66  62 NW3       30.17S HX  82
MACOMB*        SUNNY     81  59  46 NW5       30.17S HX  81
JACKSONVILLE*  MOSUNNY   80  63  56 N7        30.14S HX  81
PITTSFIELD*    SUNNY     82  63  53 CALM      30.16S HX  83
$$

ILZ028>032-037-038-041>044-048-051>054-059>061-102300-
CENTRAL ILLINOIS

CITY           SKY/WX    TMP DP  RH WIND       PRES   REMARKS
PONTIAC        SUNNY     81  67  63 N5        30.14S HX  83
BLOOMINGTON    SUNNY     82  62  50 VRB6      30.15S HX  83
DECATUR        SUNNY     80  65  59 NE10      30.13F HX  82
PEORIA         SUNNY     83  60  45 VRB6      30.14S HX  83
LACON*         SUNNY     81  65  58 N3        30.13S HX  82
LINCOLN*       SUNNY     81  64  54 N5        30.14S HX  82
SPRINGFIELD    SUNNY     82  61  48 N6        30.14S HX  83
TAYLORVILLE    SUNNY     78  64  61 N7        30.14R
$$

ILZ033-039-045-046-055>057-062-063-102300-
EAST-CENTRAL ILLINOIS

CITY           SKY/WX    TMP DP  RH WIND       PRES   REMARKS
CHAMPAIGN      SUNNY     80  60  50 N12       30.13S HX  81
DANVILLE*      SUNNY     80  62  55 N6        30.13S HX  81
RANTOUL*       SUNNY     80  58  47 N8        30.13S HX  80
MATTOON        MOSUNNY   80  63  55 N9        30.12S HX  81
PARIS*         MOSUNNY   81  67  62 NW7       30.12S HX  83
$$

ILZ079-100>102-102300-
SOUTHWEST ILLINOIS

CITY           SKY/WX    TMP DP  RH WIND       PRES   REMARKS
ALTON          SUNNY     79  61  53 N7        30.14S HX  80
BELLEVILLE     MOSUNNY   82  60  48 N10       30.11S HX  82
CAHOKIA*       SUNNY     82  64  54 NE8       30.12R HX  83
SPARTA*        SUNNY     79  64  59 N8        30.12F HX  81
$$

ILZ064>066-069>071-074>076-080>082-084>086-088>090-092>094-102300-
SOUTH-CENTRAL ILLINOIS

CITY           SKY/WX    TMP DP  RH WIND       PRES   REMARKS
CARBONDALE     PTSUNNY   82  68  62 N6        30.10S HX  85
CAIRO*         PTSUNNY   82  73  74 E7        30.08F HX  88
EFFINGHAM*     SUNNY     80  64  57 N6        30.13S HX  81
MARION         MOSUNNY   81  70  69 N9        30.10S HX  84
MT. VERNON     SUNNY     80  62  54 NE7       30.11S HX  81
CENTRALIA*     SUNNY     79  64  60 N8        30.11S HX  81
SALEM*         SUNNY     80  62  54 N6        30.12S HX  81
METROPOLIS*    MOSUNNY   81  70  69 N7        30.09S HX  84
$$

ILZ067-068-072-073-078-083-087-091-102300-
SOUTHEAST ILLINOIS

CITY           SKY/WX    TMP DP  RH WIND       PRES   REMARKS
LAWRENCEVILLE  MOSUNNY   83  67  58 NW6       30.10R HX  85
FLORA*         SUNNY     81  63  54 N8        30.11S HX  82
FAIRFIELD*     SUNNY     80  62  53 CALM      30.10S HX  81
HARRISBURG*    CLOUDY    80  73  79 N6        30.10S HX  84
ROBINSON*      SUNNY     78  67  68 CALM      30.11S HX  80
$$

ABBREVIATIONS USED IN REMARKS
   TC - TEMPERATURE IN CELSIUS
  WCI - WIND CHILL INDEX
   HX - HEAT INDEX
  VSB - VISIBILITY
$$




USA.gov is the U.S. government's official web portal to all federal, state and local government web resources and services.